700 AM EST FRI JAN 22 2021

FLZ001>010-012>015-112-114-115-221300-
PANHANDLE FLORIDA
  
CITY           SKY/WX    TMP DP  RH WIND       PRES   REMARKS
PENSACOLA      CLOUDY    66  64  93 SW6       29.91R                  
PENSACOLA NAS  CLOUDY    65  63  93 SW5       29.91R                  
MILTON NAS     CLOUDY    63  61  93 W5        29.91                   
CRESTVIEW      CLOUDY    62  60  93 CALM      29.94R FOG              
TRI COUNTY     FOG       62  61  96 CALM      29.94R VSB 1            
PANAMA CITY    CLOUDY    64  63  96 W5        29.93R                  
APALACHICOLA   CLOUDY    66  65  96 W6        30.02S                  

STATION/POSITION SKY/WX   TEMP    WIND        PRES    WAVE   SWELL
                          AIR SEA DIR/SP/G            HT/PER HT/PER
                          (F)     (DEG/KT/KT) (MB)    (FT/S) (FT/S)
30.1N   87.6W              63 61              1013.6R   3/ 5   2/ 5
28.8N   86.0W              71 71  210/ 14/ 17 1014.0R   3/ 5   2/ 8
PANAMA CITY BEAC           63 60  290/  5/  6 1013.9R
TOWER C                    66     250/ 14/ 14 1014.4R
28.5N   84.5W                     210/ 10/ 12 1015.8R   2/ 3